Temp
2 2 2 2 3 4 5 6 7 7 8 9 10 11 10 10 11 10 10 11 11 10 10 10 9 8 7
1 1 1 1 2 3 4 5 5 7 7 8 9 9 10 10 10 10 10 10 10 10 10 10 9 8 6
1 0 0 1 1 2 3 4 4 5 6 7 8 8 9 9 9 9 9 9 10 10 10 9 9 8 7
-0 0 0 1 1 2 2 3 3 3 5 6 6 7 7 8 8 8 8 9 9 9 10 9 9 8 7
-0 -0 1 1 1 1 1 0 1 3 3 3 3 4 7 6 7 7 8 8 9 9 9 9 9 8 7
-0 0 1 1 1 -1 -1 -0 0 1 1 1 2 3 4 6 6 7 7 7 8 8 8 8 8 8 7
-2 -1 -0 -0 -1 -2 -1 -1 -0 -0 -0 0 2 2 3 4 5 7 7 7 7 8 8 8 8 7 7
-2 -2 -2 -2 -2 -2 -2 -2 -1 -0 0 0 1 2 3 4 5 5 7 7 6 7 7 7 7 7 6
-4 -4 -3 -3 -3 -3 -2 -1 -1 -1 -1 -0 1 1 2 4 5 6 6 6 5 5 6 6 6 6 5
-3 -3 -3 -3 -3 -3 -3 -2 -2 -2 0 -1 -1 -1 2 4 5 4 4 5 5 4 5 4 4 4 3
-3 -3 -3 -4 -3 -3 -3 -3 -3 -3 -2 -2 -2 -2 -2 -0 1 3 4 4 4 3 3 3 3 3 2
-4 -4 -4 -5 -4 -4 -5 -5 -5 -4 -4 -4 -3 -3 -2 -1 0 2 3 3 3 3 2 2 1 1 1
-5 -5 -5 -5 -5 -6 -6 -5 -5 -5 -4 -3 -3 -2 -2 -1 -0 1 1 2 2 2 1 1 0 0 -0
-6 -6 -6 -6 -6 -6 -6 -6 -5 -5 -5 -4 -3 -2 -3 -1 -0 0 0 0 1 0 -0 -0 -0 -0 -0
-6 -6 -7 -6 -6 -7 -6 -7 -6 -6 -5 -4 -3 -3 -3 -3 -1 -0 0 -0 -0 0 -1 -1 -0 -0 -1
-7 -7 -7 -7 -8 -7 -8 -7 -7 -7 -5 -5 -5 -4 -3 -2 -1 -1 -0 -1 -1 -0 -1 -1 -2 -1 -1
-8 -8 -9 -9 -9 -9 -8 -8 -8 -7 -7 -6 -5 -5 -4 -3 -1 0 0 -0 -1 -2 -2 -2 -1 -2 -1
Height
865 858 855 852 847 843 844 840 836 834 832 831 827 825 823 824 826 828 829 829 830 831 829 833 831 830 829
863 859 856 851 848 844 842 839 836 831 833 829 824 821 817 819 819 820 822 823 825 826 824 826 828 827 826
862 860 857 853 849 847 842 836 836 831 826 822 821 816 814 813 813 813 814 816 819 820 821 820 822 823 822
866 861 857 852 848 842 838 837 832 827 823 825 820 816 813 808 807 806 807 808 812 814 814 815 816 818 818
862 860 855 851 847 843 838 835 832 828 822 819 817 813 808 807 801 802 801 802 803 807 808 810 810 813 814
860 857 855 854 850 845 841 836 829 827 824 817 817 810 804 805 802 797 795 797 796 797 803 804 806 807 808
860 856 854 853 852 848 844 840 835 829 828 816 815 809 806 800 797 790 790 791 791 789 796 797 800 801 803
855 852 852 850 850 848 843 836 830 828 826 814 809 803 798 794 790 788 784 786 788 785 788 790 793 796 797
853 850 847 845 844 843 840 835 826 820 821 815 808 801 795 787 785 785 780 781 782 780 781 785 786 790 796
849 848 845 842 838 838 836 832 828 821 813 811 808 807 793 785 783 783 780 776 775 778 778 779 783 785 792
841 840 839 839 835 832 832 829 824 820 816 814 805 805 804 793 785 782 780 777 773 775 777 777 778 781 788
836 837 836 831 831 827 826 822 819 814 811 809 801 800 798 790 786 778 775 774 770 771 774 775 778 780 782
831 829 828 825 825 824 819 814 810 807 803 800 798 794 793 786 780 775 771 769 769 768 771 771 771 775 776
824 824 819 817 818 819 813 811 803 797 794 790 791 788 783 780 775 769 766 766 763 764 765 765 767 768 771
817 818 813 812 811 811 808 804 797 791 783 782 783 781 776 772 767 764 760 758 756 758 760 759 759 761 764
811 810 806 808 807 805 802 796 791 787 781 779 777 771 765 759 760 756 753 753 751 750 753 753 753 753 756
805 802 802 801 800 797 794 788 786 783 777 776 775 772 766 757 754 751 746 746 745 745 744 744 744 745 746
Wind_Speed
14 19 22 24 29 28 25 26 26 24 24 24 24 21 21 23 28 29 30 29 26 26 22 22 20 16 13
17 18 20 22 23 25 25 25 26 25 26 25 23 24 21 23 25 27 28 30 28 27 23 21 21 18 14
20 18 18 17 21 20 22 24 27 28 28 26 21 20 21 21 23 23 26 30 30 27 26 21 21 19 16
19 21 19 18 19 21 25 22 30 29 26 20 21 22 21 18 20 22 26 27 33 30 28 24 21 20 19
16 19 21 23 22 23 23 26 26 21 22 25 30 32 25 26 20 20 22 28 32 33 30 27 23 21 19
15 16 19 20 22 22 25 25 16 14 31 37 32 34 35 30 24 21 21 27 31 34 32 29 25 22 20
16 15 19 18 21 24 23 24 26 31 31 35 28 30 30 31 28 22 24 25 34 34 34 32 27 23 21
14 16 17 19 21 24 27 29 28 25 21 26 28 30 34 36 30 26 21 24 30 32 36 35 27 24 22
16 19 21 20 19 22 23 21 25 26 22 24 16 28 30 35 24 19 18 20 23 28 31 35 27 23 22
19 20 19 19 17 16 20 21 19 17 1 18 24 22 12 20 13 30 30 21 17 27 29 29 26 24 25
19 19 17 19 18 16 17 18 21 24 26 21 20 26 18 24 28 28 25 22 15 22 26 26 26 27 29
17 19 21 20 18 16 17 22 25 30 31 24 26 24 25 27 26 23 23 19 18 23 26 26 27 27 28
20 21 19 18 20 24 21 24 24 26 24 23 27 28 29 30 28 26 22 20 21 25 28 30 31 31 28
22 23 20 20 19 19 24 21 22 27 25 22 27 26 28 30 30 32 25 16 13 29 30 31 32 32 35
21 23 22 19 21 22 18 24 24 24 28 21 22 23 28 31 29 27 26 26 29 27 32 33 35 37 37
23 23 21 22 22 21 23 22 23 26 23 24 27 29 26 27 24 29 25 26 30 31 32 28 28 35 38
23 22 22 22 24 24 24 21 24 26 24 23 21 21 10 12 24 23 25 28 26 28 32 30 24 30 39
Wind_Direction
304 318 322 323 324 325 315 314 321 325 321 307 302 298 288 275 263 263 263 260 263 269 274 279 284 275 271
318 320 322 326 326 327 322 325 318 317 322 322 309 301 298 287 272 260 262 258 257 262 267 271 278 274 266
315 321 322 329 329 329 330 326 324 323 319 328 323 311 296 291 286 268 259 255 252 257 260 265 269 269 265
319 321 326 331 333 335 334 336 333 331 322 323 324 325 327 323 298 281 267 255 247 250 256 257 262 264 262
316 319 325 332 337 335 331 330 328 332 332 329 327 318 318 326 322 309 278 265 248 245 250 254 255 258 259
308 310 314 320 322 327 324 328 328 321 326 312 317 310 310 308 319 314 297 285 261 243 246 251 250 252 254
293 297 304 312 315 314 312 308 301 302 307 299 307 301 304 308 304 313 312 286 272 249 240 246 246 248 250
278 287 292 299 302 302 303 299 297 301 308 298 307 301 307 308 305 300 301 293 271 260 241 241 240 244 243
284 285 288 291 294 300 298 305 304 307 305 289 307 310 305 307 311 306 304 288 271 264 250 239 236 236 236
292 290 290 290 292 286 290 294 302 313 334 347 317 330 310 301 301 319 316 315 282 262 248 235 232 220 225
289 287 288 292 290 286 280 282 287 275 285 307 297 300 287 297 298 295 301 297 278 245 240 234 226 224 222
283 285 290 288 287 285 284 283 279 277 286 289 283 288 287 287 289 292 293 288 261 246 235 229 227 216 223
276 282 283 288 291 293 290 294 284 283 287 290 282 283 279 275 275 277 281 282 254 236 229 221 217 212 213
278 281 284 291 287 289 296 289 295 294 297 295 289 287 291 285 264 265 261 246 262 234 229 224 219 220 222
269 277 284 284 288 294 285 297 290 297 303 302 297 296 295 292 273 261 255 249 252 247 226 222 222 225 226
266 265 274 281 286 287 290 282 289 294 293 303 305 304 306 304 285 261 257 251 246 243 231 215 219 220 229
260 267 267 271 280 282 280 275 283 286 286 291 295 299 298 292 294 272 263 251 239 227 225 216 224 222 227